Flag for Romania Weather past 2 weeks in Iasi, Romania

Now
45 °F

Light rain. Partly sunny.


Feels Like: 39 °F
Forecast: 39 / 61 °F
Wind: 12 mph from Northwest

Location: Iasi Airport


UV Index: 0 (Low)

Visibility: 5 mi


Pressure: 30.04 "Hg

Humidity: 93%

Dew point: 43 °F

Location of IasiLocation

Historic Weather in Iasi

°F

Iasi temperature yesterday

Maximum temperature yesterday: 54 °F (at 12:00 AM)
Minimum temperature yesterday: 43 °F (at 8:00 PM)
Average temperature yesterday: 47 °F

Past Weeks' High & Low Weather Summary

 TemperatureHumidityPressure
High73 °F (Apr 9, 2:30 PM)100% (Apr 7, 6:30 AM)30.30 "Hg (Apr 7, 6:30 AM)
Low34 °F (Apr 3, 4:00 AM)31% (Apr 9, 2:30 PM)29.71 "Hg (Apr 15, 3:00 AM)
Average49 °F71%29.98 "Hg
* Reported Apr 1 12:00 Noon — Apr 16 12:30 PM, Iasi, Weather by CustomWeather, © 2014

Note: Actual official high and low records may vary slightly from our data, if they occured in-between our weather recording intervals... More about our weather records

Advertising

Historic Weather Conditions — Data for Previous 24 hours

 ConditionsComfort  
Time TempWeatherWind HumidityBarometerVisibility
12:30 PM
Apr 16
45 °FLight rain. Partly sunny.12 mph93%30.04 "Hg5 mi
12:00 PM45 °FLight rain. Partly sunny.12 mph93%30.04 "Hg4 mi
11:30 AM45 °FLight rain. Scattered clouds.9 mph93%30.04 "Hg4 mi
11:00 AM45 °FLight rain. Broken clouds.9 mph93%30.04 "Hg4 mi
10:30 AM43 °FLight rain. Broken clouds.9 mph100%30.04 "Hg4 mi
10:00 AM43 °FLight rain. Scattered clouds.7 mph100%30.04 "Hg3 mi
9:30 AM43 °FLight rain. Partly sunny.7 mph100%30.01 "Hg4 mi
9:00 AM43 °FLight rain. Fog.2 mph93%30.01 "Hg2 mi
8:30 AM41 °FLight rain. Fog.2 mph100%30.01 "Hg2 mi
8:00 AM41 °FLight rain. Fog.5 mph100%29.98 "Hg2 mi
7:30 AM41 °FLight rain. Clear.2 mph100%29.98 "HgN/A
7:00 AM41 °FClear.No wind93%29.98 "Hg10 mi
6:30 AM39 °FClear.2 mph100%29.95 "Hg10 mi
6:00 AM39 °FClear.2 mph100%29.95 "Hg10 mi
5:30 AM39 °FClear.2 mph100%29.95 "Hg10 mi
5:00 AM39 °FClear.No wind100%29.95 "Hg10 mi
4:00 AM39 °FPassing clouds.No wind100%29.95 "HgN/A
3:00 AM39 °FPassing clouds.2 mph93%29.98 "HgN/A
1:00 AM39 °FClear.5 mph100%29.95 "Hg10 mi
12:00 AM41 °FClear.5 mph93%29.95 "Hg10 mi
11:00 PM
Apr 15
43 °FPassing clouds.5 mph93%29.95 "HgN/A
10:00 PM43 °FPassing clouds.2 mph93%29.95 "HgN/A
9:00 PM43 °FLight rain. Passing clouds.5 mph93%29.95 "HgN/A
8:30 PM43 °FLight rain. Partly sunny.2 mph93%29.92 "HgN/A
8:00 PM43 °FLight rain. Partly sunny.5 mph93%29.92 "HgN/A
7:00 PM45 °FLight rain. Broken clouds.7 mph93%29.92 "HgN/A
6:30 PM45 °FLight rain. Broken clouds.7 mph87%29.92 "HgN/A
6:00 PM45 °FLight rain. Broken clouds.9 mph87%29.89 "HgN/A
5:30 PM45 °FLight rain. Broken clouds.12 mph93%29.89 "Hg6 mi
5:00 PM45 °FLight rain. Broken clouds.14 mph93%29.89 "Hg5 mi
4:30 PM45 °FLight rain. Broken clouds.12 mph93%29.89 "Hg5 mi
4:00 PM45 °FLight rain. Broken clouds.14 mph93%29.86 "HgN/A
3:30 PM46 °FBroken clouds.12 mph87%29.86 "HgN/A
3:00 PM45 °FLight rain. Broken clouds.14 mph93%29.86 "Hg6 mi
2:30 PM45 °FLight rain. Broken clouds.14 mph93%29.86 "Hg6 mi
2:00 PM45 °FLight rain. Cloudy.12 mph93%29.86 "Hg4 mi
1:30 PM45 °FLight rain. Partly sunny.12 mph100%29.86 "Hg5 mi
1:00 PM46 °FSprinkles. Broken clouds.12 mph93%29.83 "Hg5 mi
Weather by CustomWeather, © 2014

See weather overview